When you browse on this site, cookies collect data to enhance your experience and personalize the content and advertising you see.
Visit our Privacy Policy to learn more. By continuing to use the site, you agree to this use of cookies and data.
  • In Hungary
  • List of Countries
  • For 7 days
  • Water Temperature
  • Weather Map
  • News
  • Weather Widgets
  • user-avatar
    Login

    Hourly Weather Burgas

    Today, 19 November, Tuesday

    Time Temperature Precipitation Wind Pressure Humidity
    00:00 +16°C° 0 mm 1 mps 765 mmHg 85%
    01:00 +16°C° 0 mm 1 mps 765 mmHg 85%
    02:00 +14°C° 0 mm 0 mps 765 mmHg 89%
    03:00 +14°C° 0 mm 0 mps 765 mmHg 89%
    04:00 +14°C° 0 mm 0 mps 765 mmHg 89%
    05:00 +14°C° 0 mm 0 mps 765 mmHg 88%
    06:00 +14°C° 0 mm 0 mps 765 mmHg 88%
    07:00 +14°C° 0 mm 0 mps 765 mmHg 87%
    08:00 +14°C° 0 mm 0 mps 766 mmHg 87%
    09:00 +16°C° 0 mm 0 mps 766 mmHg 79%
    10:00 +17°C° 0 mm 0 mps 766 mmHg 72%
    11:00 +19°C° 0 mm 0 mps 766 mmHg 65%
    12:00 +21°C° 0 mm 1 mps 766 mmHg 63%
    13:00 +22°C° 0 mm 1 mps 765 mmHg 60%
    14:00 +22°C° 0 mm 1 mps 765 mmHg 58%
    15:00 +20°C° 0 mm 2 mps 765 mmHg 64%
    16:00 +19°C° 0 mm 2 mps 765 mmHg 70%
    17:00 +18°C° 0 mm 2 mps 765 mmHg 75%
    18:00 +17°C° 0 mm 2 mps 765 mmHg 77%
    19:00 +17°C° 0 mm 2 mps 765 mmHg 78%
    20:00 +16°C° 0 mm 2 mps 765 mmHg 80%
    21:00 +16°C° 0 mm 2 mps 765 mmHg 80%
    22:00 +15°C° 0 mm 2 mps 765 mmHg 81%
    23:00 +15°C° 0 mm 2 mps 764 mmHg 82%

    Tomorrow, 20 November, Wednesday

    Time Temperature Precipitation Wind Pressure Humidity
    00:00 +15°C° 0 mm 2 mps 764 mmHg 83%
    01:00 +15°C° 0 mm 2 mps 764 mmHg 85%
    02:00 +14°C° 0 mm 2 mps 764 mmHg 86%
    03:00 +14°C° 0 mm 2 mps 764 mmHg 88%
    04:00 +14°C° 0 mm 2 mps 764 mmHg 89%
    05:00 +14°C° 0 mm 2 mps 763 mmHg 90%
    06:00 +14°C° 0 mm 2 mps 763 mmHg 92%
    07:00 +13°C° 0 mm 3 mps 763 mmHg 93%
    08:00 +13°C° 0 mm 3 mps 763 mmHg 95%
    09:00 +16°C° 0 mm 3 mps 763 mmHg 86%
    10:00 +17°C° 0 mm 4 mps 763 mmHg 77%
    11:00 +19°C° 0 mm 5 mps 763 mmHg 68%
    12:00 +19°C° 0 mm 5 mps 763 mmHg 65%
    13:00 +19°C° 0 mm 5 mps 762 mmHg 62%
    14:00 +20°C° 0 mm 5 mps 762 mmHg 60%
    15:00 +17°C° 0 mm 5 mps 762 mmHg 68%
    16:00 +17°C° 0 mm 4 mps 762 mmHg 76%
    17:00 +15°C° 0 mm 4 mps 762 mmHg 84%
    18:00 +15°C° 0 mm 4 mps 762 mmHg 85%
    19:00 +14°C° 0 mm 4 mps 762 mmHg 86%
    20:00 +14°C° 0 mm 4 mps 762 mmHg 87%
    21:00 +14°C° 0 mm 4 mps 762 mmHg 87%
    22:00 +14°C° 0 mm 3 mps 762 mmHg 87%
    23:00 +14°C° 0 mm 3 mps 762 mmHg 87%

    Day after tomorrow, 21 November, Thursday

    Time Temperature Precipitation Wind Pressure Humidity
    00:00 +14°C° 0 mm 3 mps 762 mmHg 86%
    01:00 +14°C° 0 mm 3 mps 762 mmHg 85%
    02:00 +15°C° 0 mm 2 mps 762 mmHg 84%
    03:00 +14°C° 0 mm 3 mps 762 mmHg 85%
    04:00 +14°C° 0 mm 3 mps 761 mmHg 85%
    05:00 +14°C° 0 mm 3 mps 761 mmHg 86%
    06:00 +14°C° 0.3 mm 3 mps 761 mmHg 87%
    07:00 +14°C° 0.3 mm 3 mps 762 mmHg 88%
    08:00 +14°C° 0.3 mm 3 mps 762 mmHg 89%
    09:00 +14°C° 0.3 mm 3 mps 762 mmHg 87%
    10:00 +14°C° 0.3 mm 4 mps 762 mmHg 85%
    11:00 +15°C° 0.3 mm 4 mps 762 mmHg 83%
    12:00 +15°C° 0.4 mm 5 mps 762 mmHg 84%
    13:00 +14°C° 0.4 mm 5 mps 761 mmHg 85%
    14:00 +14°C° 0.4 mm 5 mps 761 mmHg 87%
    15:00 +14°C° 0.2 mm 5 mps 761 mmHg 87%
    16:00 +14°C° 0.2 mm 5 mps 761 mmHg 87%
    17:00 +14°C° 0.2 mm 5 mps 761 mmHg 88%
    18:00 +14°C° 0.1 mm 5 mps 761 mmHg 88%
    19:00 +14°C° 0.1 mm 6 mps 762 mmHg 88%
    20:00 +14°C° 0.1 mm 6 mps 762 mmHg 88%
    21:00 +14°C° 0.2 mm 6 mps 762 mmHg 87%
    22:00 +14°C° 0.2 mm 6 mps 762 mmHg 87%
    23:00 +14°C° 0.2 mm 7 mps 762 mmHg 87%

    22 November, Friday

    Time Temperature Precipitation Wind Pressure Humidity
    00:00 +14°C° 0.1 mm 7 mps 762 mmHg 86%
    01:00 +12°C° 0.1 mm 7 mps 762 mmHg 86%
    02:00 +12°C° 0.1 mm 7 mps 762 mmHg 85%
    03:00 +12°C° 0.1 mm 7 mps 762 mmHg 85%
    04:00 +12°C° 0.1 mm 7 mps 762 mmHg 85%
    05:00 +11°C° 0.1 mm 7 mps 762 mmHg 84%
    06:00 +11°C° 0.1 mm 7 mps 762 mmHg 84%
    07:00 +11°C° 0.1 mm 7 mps 762 mmHg 83%
    08:00 +11°C° 0.1 mm 8 mps 763 mmHg 83%
    09:00 +11°C° 0 mm 7 mps 763 mmHg 81%
    10:00 +12°C° 0 mm 7 mps 763 mmHg 80%
    11:00 +12°C° 0 mm 7 mps 763 mmHg 78%
    12:00 +12°C° 0 mm 7 mps 763 mmHg 78%
    13:00 +11°C° 0 mm 7 mps 763 mmHg 78%
    14:00 +11°C° 0 mm 7 mps 762 mmHg 78%
    15:00 +11°C° 0 mm 7 mps 762 mmHg 79%
    16:00 +10°C° 0 mm 7 mps 763 mmHg 80%
    17:00 +10°C° 0 mm 7 mps 763 mmHg 81%
    18:00 +10°C° 0 mm 6 mps 763 mmHg 81%
    19:00 +10°C° 0 mm 6 mps 763 mmHg 81%
    20:00 +10°C° 0 mm 6 mps 763 mmHg 81%
    21:00 +9°C° 0 mm 6 mps 763 mmHg 82%
    22:00 +9°C° 0 mm 5 mps 763 mmHg 82%
    23:00 +9°C° 0 mm 5 mps 763 mmHg 82%

    23 November, Saturday

    Time Temperature Precipitation Wind Pressure Humidity
    00:00 +10°C° 0.1 mm 4 mps 763 mmHg 82%
    01:00 +10°C° 0.1 mm 4 mps 763 mmHg 82%
    02:00 +10°C° 0.1 mm 4 mps 763 mmHg 82%
    03:00 +10°C° 0.1 mm 4 mps 763 mmHg 83%
    04:00 +10°C° 0.1 mm 4 mps 763 mmHg 84%
    05:00 +10°C° 0.1 mm 4 mps 763 mmHg 84%
    06:00 +10°C° 0.3 mm 4 mps 763 mmHg 85%
    07:00 +10°C° 0.3 mm 4 mps 763 mmHg 85%
    08:00 +10°C° 0.3 mm 4 mps 763 mmHg 85%
    09:00 +10°C° 0.2 mm 4 mps 763 mmHg 85%
    10:00 +10°C° 0.2 mm 4 mps 763 mmHg 85%
    11:00 +11°C° 0.2 mm 4 mps 763 mmHg 85%
    12:00 +11°C° 0.1 mm 4 mps 762 mmHg 84%
    13:00 +11°C° 0.1 mm 4 mps 762 mmHg 84%
    14:00 +12°C° 0.1 mm 4 mps 762 mmHg 84%
    15:00 +12°C° 0.3 mm 4 mps 762 mmHg 86%
    16:00 +12°C° 0.3 mm 4 mps 762 mmHg 88%
    17:00 +12°C° 0.3 mm 4 mps 761 mmHg 90%
    18:00 +12°C° 0.5 mm 4 mps 761 mmHg 90%
    19:00 +12°C° 0.5 mm 4 mps 761 mmHg 90%
    20:00 +12°C° 0.5 mm 4 mps 761 mmHg 90%
    21:00 +12°C° 0.3 mm 4 mps 762 mmHg 91%
    22:00 +12°C° 0.3 mm 4 mps 762 mmHg 91%
    23:00 +12°C° 0.3 mm 4 mps 762 mmHg 92%

    24 November, Sunday

    Time Temperature Precipitation Wind Pressure Humidity
    00:00 +12°C° 1.1 mm 4 mps 762 mmHg 92%
    01:00 +12°C° 1.1 mm 4 mps 762 mmHg 92%
    02:00 +12°C° 1.1 mm 4 mps 762 mmHg 92%
    03:00 +12°C° 0.6 mm 5 mps 761 mmHg 91%
    04:00 +12°C° 0.6 mm 5 mps 761 mmHg 90%
    05:00 +12°C° 0.6 mm 5 mps 761 mmHg 90%
    06:00 +12°C° 0.8 mm 5 mps 761 mmHg 90%
    07:00 +12°C° 0.8 mm 5 mps 762 mmHg 91%
    08:00 +12°C° 0.8 mm 5 mps 762 mmHg 92%
    09:00 +12°C° 0.9 mm 5 mps 762 mmHg 92%
    10:00 +12°C° 0.9 mm 5 mps 762 mmHg 92%
    11:00 +12°C° 0.9 mm 5 mps 762 mmHg 92%
    12:00 +12°C° 0.6 mm 5 mps 762 mmHg 91%
    13:00 +12°C° 0.6 mm 5 mps 762 mmHg 91%
    14:00 +12°C° 0.6 mm 5 mps 762 mmHg 91%
    15:00 +12°C° 0.3 mm 5 mps 762 mmHg 91%
    16:00 +12°C° 0.3 mm 5 mps 762 mmHg 91%
    17:00 +12°C° 0.3 mm 5 mps 762 mmHg 90%
    18:00 +12°C° 0.1 mm 5 mps 762 mmHg 90%
    19:00 +12°C° 0.1 mm 5 mps 762 mmHg 89%
    20:00 +11°C° 0.1 mm 4 mps 762 mmHg 88%
    21:00 +11°C° 0.1 mm 4 mps 762 mmHg 88%
    22:00 +11°C° 0.1 mm 4 mps 762 mmHg 87%
    23:00 +11°C° 0.1 mm 4 mps 762 mmHg 87%
    Show more